[[{"header":{"parameterUnit":"m.s-1","parameterCategory":1,"la1":30.2991,"la2":30.254,"lo1":-89.0895,"lo2":-89.0444,"dy":0.0017,"dx":0.0017,"nx":28,"ny":28,"refTime":"2026-02-10T09:00:00:Z","depth":0,"parameterNumber":2,"parameterNumberName":"U-component_of_WINDS"},"data":[0,0,0,0,0,0,0,0,0,0,0,0,0,0,0,0,0,0,0,0,0,0,0,0,0,0,0,0,0,0,0,0,0,0,0,0,0,0,0,0,0,0,0,0,0,0,0,0,0,0,0,0,0,0,0,0,0,0,0.6643,0.6644,0,0.6737,0.6739,0.674,0.6781,0.6781,0.6781,0.6781,0.6878,0.6881,0.6884,0,0,0,0,0,0,0,0,0,0,0,0,0,0.6498,0.65,0.6643,0.6644,0.6645,0.6737,0.6739,0.674,0.6781,0.6781,0.6781,0.6781,0.6877,0.6881,0.6884,0,0,0,0,0,0,0,0,0,0,0,0,0,0.6573,0.6501,0.6642,0.6677,0.6681,0.6737,0.6739,0.674,0.6782,0.6781,0.6781,0.6781,0.6876,0.688,0.6884,0.6913,0,0,0.6897,0.6899,0,0,0,0,0,0,0,0,0.6569,0.6579,0.6671,0.6675,0.6679,0.6747,0.6723,0.6798,0.6782,0.6743,0.6781,0.6781,0.6835,0.6842,0.6861,0.6918,0.6922,0.6897,0.69,0.6901,0.6903,0,0,0,0,0,0,0,0.6564,0.6575,0.668,0.6672,0.6677,0.6688,0.6698,0.6738,0.6789,0.6747,0.675,0.6761,0.6837,0.6857,0.6863,0.6924,0.6897,0.6901,0.6903,0.6905,0.701,0.701,0,0,0,0,0,0,0.6553,0.657,0.6677,0.6683,0.6622,0.669,0.6702,0.6726,0.6789,0.6798,0.6761,0.6762,0.685,0.6858,0.6867,0.6905,0.6901,0.6905,0.6908,0.7009,0.701,0.701,0,0,0,0,0,0,0.6549,0.6562,0.6673,0.6627,0.6642,0.6693,0.6719,0.6728,0.6747,0.6799,0.6809,0.6771,0.685,0.6861,0.6902,0.6909,0.6907,0.6911,0.7009,0.7009,0.701,0.6982,0,0,0,0,0,0,0.6545,0.656,0.6572,0.6627,0.6645,0.6706,0.672,0.673,0.6754,0.6757,0.6812,0.682,0.6851,0.6895,0.6906,0.6915,0.6914,0.7008,0.7009,0.701,0.6982,0.6981,0.698,0,0,0,0,0,0.654,0.656,0.6572,0.6585,0.666,0.6707,0.6717,0.6751,0.6754,0.6766,0.68,0.6819,0.6906,0.6899,0.6911,0.6921,0.7008,0.7009,0.701,0.6983,0.6981,0.698,0,0,0,0,0,0,0.6505,0.6568,0.6582,0.6621,0.6658,0.6714,0.673,0.6749,0.6785,0.6787,0.6828,0.684,0.6876,0.6903,0.6894,0.6953,0.6959,0.6962,0.6934,0.6933,0.6932,0.6925,0.6917,0,0,0,0,0,0.6501,0.6534,0.6588,0.6617,0.6635,0.6679,0.67,0.6724,0.6764,0.6779,0.6816,0.6854,0.689,0.6913,0.695,0.6986,0.6999,0.6999,0.6998,0.6997,0.6999,0.7021,0.7022,0.7012,0.7012,0.7012,0,0,0.6495,0.6534,0.6552,0.6611,0.6642,0.6675,0.6692,0.6726,0.675,0.6785,0.6825,0.6853,0.6898,0.6937,0.6956,0.696,0.7005,0.6998,0.6997,0.7,0.7022,0.7022,0.7023,0.7013,0.7013,0.7013,0,0,0.65,0.6533,0.6561,0.6592,0.6639,0.6668,0.6675,0.6727,0.6747,0.6789,0.6815,0.6845,0.6906,0.6938,0.6961,0.6978,0.6996,0.6989,0.6984,0.7004,0.7005,0.7006,0.7012,0.7013,0.6991,0.6991,0.6991,0,0.6487,0.6537,0.6573,0.6605,0.663,0.6663,0.6691,0.672,0.6776,0.6793,0.6797,0.6875,0.6908,0.6954,0.6958,0.6976,0.6985,0.6983,0.7002,0.7003,0.7004,0.701,0.7013,0.6989,0.6989,0.699,0.699,0,0.6518,0.6552,0.6569,0.6623,0.665,0.668,0.672,0.6744,0.6764,0.6793,0.6834,0.6875,0.692,0.6932,0.6953,0.6982,0.6983,0.6994,0.7001,0.7003,0.701,0.7012,0.6988,0.6988,0.6988,0.6989,0,0,0.6504,0.6577,0.6582,0.6607,0.6661,0.6689,0.672,0.6764,0.6783,0.6821,0.6849,0.69,0.691,0.6937,0.6961,0.6979,0.699,0.6988,0.699,0.6987,0.7024,0.7015,0.7017,0.7002,0.7003,0.7003,0.702,0,0.6517,0.6575,0.6608,0.6653,0.6685,0.6716,0.6743,0.678,0.6807,0.6839,0.6869,0.6905,0.6916,0.6932,0.6951,0.6984,0.6998,0.6984,0.7028,0.703,0.7016,0.7021,0.7012,0.7026,0.7023,0.7023,0.7024,0,0.6539,0.6576,0.6624,0.6675,0.6689,0.6714,0.6756,0.6786,0.6828,0.6846,0.6876,0.6901,0.6935,0.6939,0.6987,0.6977,0.6997,0.7016,0.7018,0.7023,0.7027,0.7027,0.7031,0.7033,0.7028,0.7028,0.7027,0,0.6525,0.6586,0.6623,0.6643,0.6703,0.6719,0.6745,0.6786,0.681,0.6848,0.6864,0.6905,0.6927,0.6958,0.6993,0.6992,0.7038,0.7044,0.7054,0.7053,0.7063,0.7062,0.7071,0.7075,0.7075,0.7075,0.7075,0,0.6536,0.6564,0.6617,0.6639,0.6672,0.6709,0.674,0.6769,0.6805,0.6834,0.6863,0.6889,0.6933,0.6965,0.6992,0.7028,0.7038,0.7054,0.7061,0.7051,0.7049,0.7066,0.7066,0.7076,0.7076,0.7075,0.7075,0,0.6525,0.6562,0.6604,0.6657,0.6671,0.6692,0.6737,0.676,0.6789,0.6825,0.6836,0.6881,0.692,0.6957,0.7009,0.7027,0.7063,0.7072,0.7049,0.7053,0.7061,0.706,0.7081,0.7085,0.7086,0.7086,0.7086,0,0.6529,0.6552,0.6607,0.6628,0.6653,0.6687,0.6711,0.6749,0.6774,0.6823,0.684,0.6881,0.6915,0.6976,0.7013,0.7053,0.7064,0.7068,0.707,0.706,0.7064,0.7062,0.7065,0.7067,0.7067,0.7067,0.7067,0,0.6534,0.6551,0.6585,0.6626,0.6655,0.6689,0.6724,0.674,0.6784,0.6811,0.685,0.6877,0.693,0.697,0.7014,0.7041,0.7061,0.7066,0.707,0.7061,0.7047,0.7055,0.7047,0.7065,0.7066,0.7066,0.7066,0.7066,0.6531,0.6552,0.6594,0.6632,0.6662,0.6694,0.6718,0.675,0.6784,0.683,0.685,0.689,0.6932,0.6993,0.7019,0.7051,0.7056,0.7062,0.7064,0.7065,0.7063,0.7041,0.7059,0.7059,0.7059,0.7059,0.7059,0,0.6537,0.6566,0.66,0.6648,0.6677,0.6694,0.6733,0.6757,0.6792,0.6828,0.6862,0.6907,0.6946,0.6987,0.7028,0.7046,0.7056,0.7056,0.7055,0.7061,0.7056,0.7048,0.7046,0.7046,0.7046,0.7046,0.7046,0.7046,0.6544,0.6581,0.6602,0.6654,0.6683,0.6722,0.6744,0.6773,0.6803,0.6852,0.6885,0.6911,0.6949,0.6994,0.703,0.7041,0.7055,0.7051,0.7065,0.706,0.7061,0.7062,0.7055,0.7054,0.7054,0.7067,0.7067,0.7067]},{"header":{"parameterUnit":"m.s-1","parameterCategory":1,"la1":30.2991,"la2":30.254,"lo1":-89.0895,"lo2":-89.0444,"dy":0.0017,"dx":0.0017,"nx":28,"ny":28,"refTime":"2026-02-10T09:00:00:Z","depth":0,"parameterNumber":3,"parameterNumberName":"V-component_of_WINDS"},"data":[0,0,0,0,0,0,0,0,0,0,0,0,0,0,0,0,0,0,0,0,0,0,0,0,0,0,0,0,0,0,0,0,0,0,0,0,0,0,0,0,0,0,0,0,0,0,0,0,0,0,0,0,0,0,0,0,0,0,0.4499,0.4499,0,0.4523,0.4523,0.4523,0.4529,0.4528,0.4528,0.4528,0.4552,0.4553,0.4554,0,0,0,0,0,0,0,0,0,0,0,0,0,0.4457,0.4458,0.4499,0.4499,0.45,0.4523,0.4523,0.4524,0.4529,0.4528,0.4528,0.4528,0.4552,0.4553,0.4554,0,0,0,0,0,0,0,0,0,0,0,0,0,0.4478,0.4458,0.4499,0.4505,0.4506,0.4523,0.4523,0.4524,0.4529,0.4528,0.4528,0.4528,0.4552,0.4553,0.4554,0.4567,0,0,0.4558,0.4558,0,0,0,0,0,0,0,0,0.4477,0.4479,0.4504,0.4505,0.4506,0.4522,0.4517,0.4538,0.4529,0.452,0.4528,0.4528,0.4543,0.4545,0.455,0.4568,0.4569,0.4558,0.4559,0.4559,0.456,0,0,0,0,0,0,0,0.4475,0.4478,0.4509,0.4504,0.4505,0.4506,0.4509,0.4521,0.4532,0.4521,0.4521,0.4524,0.4543,0.4548,0.455,0.457,0.4558,0.4559,0.456,0.456,0.4599,0.46,0,0,0,0,0,0,0.4473,0.4477,0.4508,0.4509,0.449,0.4507,0.451,0.4517,0.4532,0.4534,0.4524,0.4524,0.4546,0.4549,0.4551,0.4567,0.4559,0.456,0.4561,0.4599,0.4599,0.46,0,0,0,0,0,0,0.4472,0.4476,0.4507,0.4493,0.4497,0.4508,0.4516,0.4518,0.4523,0.4535,0.4537,0.4528,0.4546,0.4549,0.4563,0.4568,0.4561,0.4562,0.4599,0.4599,0.4599,0.4599,0,0,0,0,0,0,0.4471,0.4475,0.448,0.4493,0.4498,0.4519,0.4517,0.4519,0.4525,0.4526,0.4539,0.4541,0.4546,0.4561,0.4564,0.457,0.4563,0.4598,0.4599,0.4599,0.4599,0.46,0.46,0,0,0,0,0,0.4469,0.448,0.4481,0.4484,0.4505,0.4519,0.4521,0.4528,0.4526,0.4531,0.4538,0.454,0.4567,0.4562,0.4566,0.4572,0.4598,0.4599,0.4599,0.4599,0.46,0.46,0,0,0,0,0,0,0.4467,0.4481,0.4483,0.4498,0.4507,0.452,0.4527,0.4529,0.4539,0.4539,0.4546,0.4549,0.4562,0.4568,0.4563,0.4585,0.4582,0.4584,0.4581,0.4582,0.4582,0.4581,0.4564,0,0,0,0,0,0.4468,0.4478,0.449,0.4502,0.4507,0.4516,0.4522,0.4526,0.4536,0.454,0.4548,0.4558,0.4568,0.4575,0.4585,0.4599,0.4602,0.4605,0.4606,0.4606,0.4608,0.4616,0.4617,0.4602,0.4602,0.4602,0,0,0.4471,0.448,0.4486,0.4502,0.451,0.452,0.4519,0.453,0.4538,0.4542,0.4555,0.4561,0.4572,0.4586,0.4593,0.4592,0.4612,0.4607,0.4608,0.4609,0.4617,0.4618,0.4619,0.4602,0.4602,0.4602,0,0,0.4482,0.4489,0.45,0.4508,0.4519,0.4525,0.4527,0.4539,0.4544,0.4557,0.456,0.4569,0.4587,0.4595,0.4601,0.4613,0.4615,0.4616,0.462,0.4628,0.4629,0.463,0.4635,0.4636,0.4617,0.4617,0.4617,0,0.4484,0.4499,0.4505,0.4516,0.4523,0.4526,0.4537,0.4544,0.4559,0.4563,0.4562,0.4584,0.4591,0.4607,0.461,0.4615,0.4618,0.4615,0.4628,0.463,0.4631,0.4635,0.4637,0.4617,0.4617,0.4617,0.4617,0,0.4502,0.4512,0.452,0.4533,0.4541,0.4551,0.4559,0.4565,0.4568,0.4574,0.4587,0.4596,0.4609,0.4612,0.4615,0.4628,0.4627,0.4627,0.4625,0.4632,0.4636,0.4638,0.4617,0.4617,0.4617,0.4617,0,0,0.4513,0.4529,0.4531,0.4537,0.455,0.4558,0.4569,0.458,0.4586,0.4595,0.4604,0.4619,0.4618,0.4625,0.4629,0.4636,0.4645,0.4634,0.4635,0.4637,0.466,0.466,0.4662,0.4646,0.4646,0.4646,0.4659,0,0.4525,0.4545,0.455,0.4566,0.4576,0.4579,0.4588,0.4596,0.4602,0.4611,0.4616,0.4627,0.4625,0.4629,0.4636,0.4642,0.465,0.4641,0.4655,0.4655,0.4653,0.4665,0.4666,0.4677,0.4661,0.4661,0.4661,0,0.4543,0.4552,0.457,0.458,0.4585,0.4593,0.4604,0.4612,0.4622,0.4625,0.4632,0.4635,0.4646,0.4642,0.4657,0.4651,0.4657,0.466,0.4661,0.4663,0.4659,0.4668,0.4681,0.4683,0.4664,0.4663,0.4663,0,0.455,0.4567,0.458,0.4585,0.4597,0.4603,0.4608,0.4617,0.4624,0.4633,0.4637,0.4647,0.4653,0.4661,0.4666,0.4663,0.4681,0.4677,0.4684,0.4684,0.4688,0.4688,0.4703,0.469,0.469,0.469,0.469,0,0.4564,0.4575,0.4583,0.4591,0.4603,0.4608,0.4619,0.4625,0.4632,0.4641,0.4644,0.4652,0.4658,0.4667,0.4671,0.4683,0.4685,0.4688,0.4689,0.4688,0.4688,0.4693,0.4693,0.4691,0.4691,0.4691,0.469,0,0.4575,0.4581,0.4595,0.4605,0.4608,0.4616,0.4625,0.4632,0.4637,0.4648,0.4651,0.4658,0.4669,0.4674,0.4688,0.469,0.4704,0.4704,0.4701,0.4701,0.4708,0.4707,0.4727,0.473,0.4714,0.4715,0.4715,0,0.4584,0.4592,0.4603,0.4609,0.4615,0.4624,0.4631,0.4636,0.4642,0.4653,0.4659,0.4669,0.4678,0.4695,0.4701,0.4711,0.4712,0.4718,0.4714,0.4712,0.4713,0.4713,0.4714,0.4719,0.472,0.472,0.472,0,0.46,0.4602,0.4611,0.4621,0.4629,0.4637,0.4645,0.465,0.4656,0.4663,0.4674,0.468,0.4693,0.4704,0.4714,0.4719,0.4721,0.4721,0.4723,0.4723,0.4721,0.4723,0.4704,0.4721,0.4721,0.4721,0.4721,0.4721,0.4611,0.4618,0.4627,0.4637,0.4643,0.465,0.4658,0.4663,0.4672,0.4683,0.4685,0.4696,0.4705,0.4718,0.4724,0.4732,0.4731,0.4734,0.4735,0.4736,0.4737,0.4719,0.4734,0.4734,0.4734,0.4734,0.4734,0,0.4627,0.4633,0.4642,0.4653,0.466,0.466,0.4669,0.4675,0.4685,0.4693,0.4701,0.4713,0.4723,0.4729,0.4739,0.4745,0.4746,0.4747,0.4747,0.4749,0.4737,0.4734,0.4746,0.4746,0.4746,0.4746,0.4746,0.4746,0.4637,0.4649,0.4652,0.4668,0.4673,0.4684,0.4689,0.4695,0.4701,0.4714,0.4723,0.4727,0.4734,0.4744,0.4753,0.4754,0.4758,0.476,0.4762,0.4751,0.475,0.4748,0.4746,0.476,0.476,0.4773,0.4773,0.4773]}]]